Time,TemperatureF,DewpointF,PressureIn,WindDirection,WindDirectionDegrees,WindSpeedMPH,WindSpeedGustMPH,Humidity,HourlyPrecipIn,Conditions,Clouds,dailyrainin,SoftwareType,DateUTC
2013-08-06 00:12:00,52.3,49.0,29.91,East,100,0.0,7.0,87,0.00,,,0.08,weatherlink.com 1.10,2013-08-06 08:12:00,
2013-08-06 00:27:00,52.0,48.0,29.91,SE,139,0.0,10.0,86,0.00,,,0.08,weatherlink.com 1.10,2013-08-06 08:27:00,
2013-08-06 00:42:00,51.9,48.0,29.91,ESE,119,0.0,6.0,86,0.00,,,0.08,weatherlink.com 1.10,2013-08-06 08:42:00,
2013-08-06 00:57:00,52.1,48.0,29.91,ESE,109,3.0,5.0,86,0.00,,,0.08,weatherlink.com 1.10,2013-08-06 08:57:00,
2013-08-06 01:12:00,52.7,48.0,29.91,ESE,113,1.0,5.0,84,0.00,,,0.08,weatherlink.com 1.10,2013-08-06 09:12:00,
2013-08-06 01:27:00,52.9,48.0,29.90,ENE,62,1.0,8.0,83,0.00,,,0.00,weatherlink.com 1.10,2013-08-06 09:27:00,
2013-08-06 01:42:00,53.2,48.0,29.90,ESE,104,5.0,9.0,83,0.00,,,0.00,weatherlink.com 1.10,2013-08-06 09:42:00,
2013-08-06 01:57:00,53.2,48.0,29.89,ENE,64,2.0,7.0,83,0.00,,,0.00,weatherlink.com 1.10,2013-08-06 09:57:00,
2013-08-06 02:12:00,53.0,48.0,29.89,NE,48,5.0,9.0,84,0.00,,,0.00,weatherlink.com 1.10,2013-08-06 10:12:00,
2013-08-06 02:28:00,52.9,49.0,29.89,NNE,32,5.0,9.0,85,0.00,,,0.00,weatherlink.com 1.10,2013-08-06 10:28:00,
2013-08-06 02:43:00,52.8,49.0,29.88,ENE,61,7.0,11.0,86,0.00,,,0.00,weatherlink.com 1.10,2013-08-06 10:43:00,
2013-08-06 02:58:00,52.6,49.0,29.88,ENE,74,2.0,8.0,87,0.00,,,0.00,weatherlink.com 1.10,2013-08-06 10:58:00,
2013-08-06 03:13:00,52.7,49.0,29.87,ENE,72,2.0,10.0,87,0.00,,,0.00,weatherlink.com 1.10,2013-08-06 11:13:00,
2013-08-06 03:28:00,53.0,49.0,29.87,ENE,78,9.0,11.0,86,0.00,,,0.00,weatherlink.com 1.10,2013-08-06 11:28:00,
2013-08-06 03:43:00,52.9,49.0,29.87,East,79,6.0,10.0,87,0.00,,,0.00,weatherlink.com 1.10,2013-08-06 11:43:00,
2013-08-06 03:58:00,52.8,49.0,29.87,NE,49,1.0,10.0,87,0.00,,,0.00,weatherlink.com 1.10,2013-08-06 11:58:00,
2013-08-06 04:13:00,52.7,49.0,29.86,NE,46,3.0,9.0,88,0.00,,,0.00,weatherlink.com 1.10,2013-08-06 12:13:00,
2013-08-06 04:28:00,53.0,49.0,29.87,ENE,61,7.0,9.0,87,0.00,,,0.00,weatherlink.com 1.10,2013-08-06 12:28:00,
2013-08-06 04:43:00,52.8,49.0,29.86,NE,37,2.0,5.0,88,0.00,,,0.00,weatherlink.com 1.10,2013-08-06 12:43:00,
2013-08-06 04:58:00,52.7,50.0,29.86,ENE,60,3.0,5.0,89,0.00,,,0.00,weatherlink.com 1.10,2013-08-06 12:58:00,
2013-08-06 05:13:00,52.7,50.0,29.86,NE,50,1.0,4.0,89,0.00,,,0.00,weatherlink.com 1.10,2013-08-06 13:13:00,
2013-08-06 05:28:00,52.7,50.0,29.87,ENE,63,0.0,2.0,89,0.00,,,0.00,weatherlink.com 1.10,2013-08-06 13:28:00,
2013-08-06 05:43:00,52.9,50.0,29.86,ENE,64,0.0,2.0,88,0.00,,,0.00,weatherlink.com 1.10,2013-08-06 13:43:00,
2013-08-06 05:58:00,53.3,49.0,29.85,East,80,2.0,9.0,85,0.00,,,0.00,weatherlink.com 1.10,2013-08-06 13:58:00,
2013-08-06 06:13:00,53.8,48.0,29.86,East,91,8.0,15.0,82,0.00,,,0.00,weatherlink.com 1.10,2013-08-06 14:13:00,
2013-08-06 06:28:00,53.8,48.0,29.86,East,98,10.0,22.0,82,0.00,,,0.00,weatherlink.com 1.10,2013-08-06 14:28:00,
2013-08-06 06:43:00,53.2,49.0,29.86,ESE,104,3.0,12.0,84,0.00,,,0.00,weatherlink.com 1.10,2013-08-06 14:43:00,
2013-08-06 06:58:00,52.8,48.0,29.86,ESE,122,2.0,7.0,85,0.00,,,0.00,weatherlink.com 1.10,2013-08-06 14:58:00,
2013-08-06 07:13:00,52.4,49.0,29.85,ESE,110,3.0,4.0,87,0.00,,,0.00,weatherlink.com 1.10,2013-08-06 15:13:00,
2013-08-06 07:28:00,52.5,49.0,29.85,East,83,7.0,10.0,87,0.00,,,0.00,weatherlink.com 1.10,2013-08-06 15:28:00,
2013-08-06 07:43:00,52.4,49.0,29.85,ENE,61,3.0,10.0,87,0.00,,,0.00,weatherlink.com 1.10,2013-08-06 15:43:00,
2013-08-06 07:58:00,52.6,48.0,29.85,NE,44,8.0,14.0,85,0.00,,,0.00,weatherlink.com 1.10,2013-08-06 15:58:00,
2013-08-06 08:13:00,53.0,48.0,29.85,East,81,7.0,12.0,83,0.00,,,0.00,weatherlink.com 1.10,2013-08-06 16:13:00,
2013-08-06 08:28:00,53.4,48.0,29.85,ENE,65,7.0,11.0,82,0.00,,,0.00,weatherlink.com 1.10,2013-08-06 16:28:00,
2013-08-06 08:43:00,53.7,48.0,29.85,ENE,77,7.0,13.0,81,0.00,,,0.00,weatherlink.com 1.10,2013-08-06 16:43:00,
2013-08-06 08:58:00,54.4,49.0,29.84,NE,35,6.0,16.0,81,0.00,,,0.00,weatherlink.com 1.10,2013-08-06 16:58:00,
2013-08-06 09:13:00,54.2,49.0,29.84,ESE,123,11.0,14.0,82,0.00,,,0.00,weatherlink.com 1.10,2013-08-06 17:13:00,
2013-08-06 09:28:00,55.0,49.0,29.84,East,98,9.0,17.0,80,0.00,,,0.00,weatherlink.com 1.10,2013-08-06 17:28:00,
2013-08-06 09:43:00,54.6,49.0,29.83,ENE,70,5.0,18.0,82,0.00,,,0.00,weatherlink.com 1.10,2013-08-06 17:43:00,
2013-08-06 09:59:00,55.0,50.0,29.83,ESE,107,8.0,15.0,82,0.00,,,0.00,weatherlink.com 1.10,2013-08-06 17:59:00,
2013-08-06 10:13:00,55.1,50.0,29.84,NE,49,6.0,12.0,82,0.00,,,0.00,weatherlink.com 1.10,2013-08-06 18:13:00,
2013-08-06 10:28:00,55.3,50.0,29.83,East,81,8.0,11.0,83,0.00,,,0.00,weatherlink.com 1.10,2013-08-06 18:28:00,
2013-08-06 10:43:00,55.4,50.0,29.82,East,80,6.0,14.0,83,0.00,,,0.00,weatherlink.com 1.10,2013-08-06 18:43:00,
2013-08-06 10:58:00,55.6,51.0,29.83,NE,53,5.0,14.0,83,0.00,,,0.00,weatherlink.com 1.10,2013-08-06 18:58:00,
2013-08-06 11:28:00,55.9,51.0,29.83,ENE,72,3.0,13.0,84,0.00,,,0.00,weatherlink.com 1.10,2013-08-06 19:28:00,
2013-08-06 11:43:00,56.5,51.0,29.82,East,88,7.0,13.0,81,0.00,,,0.00,weatherlink.com 1.10,2013-08-06 19:43:00,
2013-08-06 11:58:00,56.6,51.0,29.81,ENE,69,4.0,13.0,81,0.00,,,0.00,weatherlink.com 1.10,2013-08-06 19:58:00,
2013-08-06 12:13:00,56.5,51.0,29.81,ENE,57,11.0,15.0,82,0.00,,,0.00,weatherlink.com 1.10,2013-08-06 20:13:00,
2013-08-06 12:28:00,56.7,51.0,29.81,East,84,10.0,14.0,82,0.00,,,0.00,weatherlink.com 1.10,2013-08-06 20:28:00,
2013-08-06 12:44:00,56.7,52.0,29.82,NE,48,5.0,13.0,83,0.00,,,0.00,weatherlink.com 1.10,2013-08-06 20:44:00,
2013-08-06 12:59:00,57.0,52.0,29.82,ENE,75,11.0,12.0,83,0.00,,,0.00,weatherlink.com 1.10,2013-08-06 20:59:00,
2013-08-06 13:14:00,57.8,52.0,29.82,ENE,67,8.0,14.0,82,0.00,,,0.00,weatherlink.com 1.10,2013-08-06 21:14:00,
2013-08-06 13:29:00,57.3,52.0,29.83,ESE,109,8.0,17.0,82,0.00,,,0.00,weatherlink.com 1.10,2013-08-06 21:29:00,
2013-08-06 13:44:00,57.5,52.0,29.83,East,101,13.0,18.0,82,0.00,,,0.00,weatherlink.com 1.10,2013-08-06 21:44:00,
2013-08-06 13:59:00,59.6,52.0,29.83,ESE,122,10.0,23.0,77,0.00,,,0.00,weatherlink.com 1.10,2013-08-06 21:59:00,
2013-08-06 14:14:00,60.4,52.0,29.82,East,95,13.0,23.0,73,0.00,,,0.00,weatherlink.com 1.10,2013-08-06 22:14:00,
2013-08-06 14:29:00,58.6,51.0,29.83,ESE,116,4.0,17.0,77,0.00,,,0.00,weatherlink.com 1.10,2013-08-06 22:29:00,
2013-08-06 14:44:00,57.7,51.0,29.82,East,97,14.0,17.0,78,0.00,,,0.00,weatherlink.com 1.10,2013-08-06 22:44:00,
2013-08-06 14:59:00,56.6,52.0,29.82,East,80,2.0,15.0,83,0.00,,,0.00,weatherlink.com 1.10,2013-08-06 22:59:00,
2013-08-06 15:14:00,56.4,52.0,29.82,East,98,5.0,16.0,84,0.00,,,0.00,weatherlink.com 1.10,2013-08-06 23:14:00,
2013-08-06 15:29:00,56.3,52.0,29.82,East,90,6.0,16.0,85,0.00,,,0.00,weatherlink.com 1.10,2013-08-06 23:29:00,
2013-08-06 15:44:00,56.6,52.0,29.82,East,94,10.0,14.0,83,0.00,,,0.00,weatherlink.com 1.10,2013-08-06 23:44:00,
2013-08-06 15:59:00,57.4,52.0,29.82,ENE,65,4.0,13.0,83,0.00,,,0.00,weatherlink.com 1.10,2013-08-06 23:59:00,
2013-08-06 16:14:00,58.0,52.0,29.82,East,98,9.0,24.0,80,0.00,,,0.00,weatherlink.com 1.10,2013-08-07 00:14:00,
2013-08-06 16:29:00,58.4,51.0,29.81,ESE,109,17.0,24.0,76,0.00,,,0.00,weatherlink.com 1.10,2013-08-07 00:29:00,
2013-08-06 16:44:00,58.6,51.0,29.82,South,182,3.0,23.0,77,0.00,,,0.00,weatherlink.com 1.10,2013-08-07 00:44:00,
2013-08-06 16:59:00,58.6,51.0,29.82,SSE,157,10.0,19.0,75,0.00,,,0.00,weatherlink.com 1.10,2013-08-07 00:59:00,
2013-08-06 17:14:00,58.1,50.0,29.81,ESE,107,11.0,18.0,75,0.00,,,0.00,weatherlink.com 1.10,2013-08-07 01:14:00,
2013-08-06 17:29:00,58.1,50.0,29.81,ESE,109,8.0,21.0,75,0.00,,,0.00,weatherlink.com 1.10,2013-08-07 01:29:00,
2013-08-06 17:44:00,58.0,50.0,29.81,East,84,8.0,16.0,76,0.00,,,0.00,weatherlink.com 1.10,2013-08-07 01:44:00,
2013-08-06 17:59:00,57.9,52.0,29.81,ENE,69,3.0,14.0,80,0.00,,,0.00,weatherlink.com 1.10,2013-08-07 01:59:00,
2013-08-06 18:14:00,57.6,51.0,29.81,East,85,14.0,14.0,78,0.00,,,0.00,weatherlink.com 1.10,2013-08-07 02:14:00,
2013-08-06 18:29:00,57.6,51.0,29.82,ESE,102,4.0,21.0,79,0.00,,,0.00,weatherlink.com 1.10,2013-08-07 02:29:00,
2013-08-06 18:44:00,56.5,49.0,29.82,ESE,102,10.0,23.0,77,0.00,,,0.00,weatherlink.com 1.10,2013-08-07 02:44:00,
2013-08-06 18:59:00,57.4,51.0,29.82,East,101,8.0,14.0,79,0.00,,,0.00,weatherlink.com 1.10,2013-08-07 02:59:00,
2013-08-06 19:14:00,57.0,51.0,29.81,ESE,105,8.0,15.0,79,0.00,,,0.00,weatherlink.com 1.10,2013-08-07 03:14:00,
2013-08-06 19:29:00,57.3,50.0,29.81,ESE,107,10.0,18.0,77,0.00,,,0.00,weatherlink.com 1.10,2013-08-07 03:29:00,
2013-08-06 19:44:00,57.1,51.0,29.80,ESE,115,12.0,16.0,79,0.00,,,0.00,weatherlink.com 1.10,2013-08-07 03:44:00,
2013-08-06 20:14:00,56.5,50.0,29.80,ENE,61,5.0,13.0,79,0.00,,,0.00,weatherlink.com 1.10,2013-08-07 04:14:00,
2013-08-06 20:29:00,56.3,50.0,29.80,ESE,105,3.0,17.0,80,0.00,,,0.00,weatherlink.com 1.10,2013-08-07 04:29:00,
2013-08-06 20:44:00,55.8,50.0,29.80,NE,53,4.0,8.0,81,0.00,,,0.00,weatherlink.com 1.10,2013-08-07 04:44:00,
2013-08-06 20:59:00,56.2,50.0,29.81,ESE,103,12.0,16.0,79,0.00,,,0.00,weatherlink.com 1.10,2013-08-07 04:59:00,
2013-08-06 21:14:00,56.1,50.0,29.81,East,99,10.0,15.0,80,0.00,,,0.00,weatherlink.com 1.10,2013-08-07 05:14:00,
2013-08-06 21:29:00,55.9,50.0,29.80,East,90,7.0,11.0,81,0.00,,,0.00,weatherlink.com 1.10,2013-08-07 05:29:00,
2013-08-06 21:44:00,55.6,50.0,29.80,ENE,59,0.0,11.0,82,0.00,,,0.00,weatherlink.com 1.10,2013-08-07 05:44:00,
2013-08-06 21:59:00,55.2,50.0,29.81,NE,55,5.0,10.0,83,0.00,,,0.00,weatherlink.com 1.10,2013-08-07 05:59:00,
2013-08-06 22:14:00,54.8,50.0,29.80,ENE,69,5.0,13.0,84,0.00,,,0.00,weatherlink.com 1.10,2013-08-07 06:14:00,
2013-08-06 22:29:00,54.7,50.0,29.80,NE,48,5.0,14.0,84,0.00,,,0.00,weatherlink.com 1.10,2013-08-07 06:29:00,
2013-08-06 22:44:00,54.4,50.0,29.80,ENE,72,3.0,9.0,85,0.00,,,0.00,weatherlink.com 1.10,2013-08-07 06:44:00,
2013-08-06 22:59:00,54.2,50.0,29.81,ENE,61,3.0,11.0,85,0.00,,,0.00,weatherlink.com 1.10,2013-08-07 06:59:00,
2013-08-06 23:14:00,54.3,50.0,29.80,ENE,70,3.0,11.0,85,0.00,,,0.00,weatherlink.com 1.10,2013-08-07 07:14:00,
2013-08-06 23:29:00,54.5,50.0,29.80,ENE,71,3.0,11.0,84,0.00,,,0.00,weatherlink.com 1.10,2013-08-07 07:29:00,
2013-08-06 23:44:00,54.2,50.0,29.80,ENE,70,2.0,9.0,85,0.00,,,0.00,weatherlink.com 1.10,2013-08-07 07:44:00,
2013-08-06 23:59:00,54.3,50.0,29.80,NE,46,3.0,11.0,85,0.00,,,0.00,weatherlink.com 1.10,2013-08-07 07:59:00,